Weather in Kalevala

Russia / Republic of Karelia     65°11′51″N   31°11′03″E
temp.,
°C
wind,
m/s
gust,
m/s
humid.,
%
clouds,
%
prec.,
mm/h
press.,
hPa
HPBL,
m
7 march, sun
sun700:00−6ese61294100 1.4 983841
03:00−7e71292100 2.4 984882
06:00−8ene81392100 0.8 986975
09:00−10ene81591100 1.6 991824
12:00−10ne71388100 0.3 997721
15:00−10ne71387100 0.4 1001712
18:00−11ne51289100 0.0 1006589
21:00−15ne4109395 0.0 1009345
8 march, mon
mon800:00−18nne399565 0.0 1011253
03:00−21nne389657 0.0 1014223
06:00−23nne369644 0.0 1015139
09:00−22nne259659 0.0 1016159
12:00−18nne238826 0.0 1017304
15:00−16nne248861 0.0 1018386
18:00−18nne129497 0.0 101820
21:00−23ene119862 0.0 101920
9 march, tue
tue900:00−25sw001009 0.0 102020
03:00−24w119847 0.0 102120
06:00−25wsw119729 0.0 102120
09:00−23w229414 0.0 102162
12:00−16w24850 0.0 1022229
15:00−12w24874 0.0 1022329
18:00−14w239537 0.0 102229
21:00−17wnw239618 0.0 102326
10 march, wed
wed1000:00−19wnw23972 0.0 102450
03:00−19w349726 0.0 102481
06:00−19w369799 0.0 1024121
09:00−17w3895100 0.0 1024216
12:00−13w369171 0.0 1024311
15:00−10w368978 0.0 1023409
18:00−12w239355 0.0 102272
21:00−15wsw239528 0.0 102241
11 march, thu
thu1100:00−18wsw33920 0.0 102172
03:00−19sw36910 0.0 1020126
06:00−20sw38920 0.0 1018153
09:00−18sw411840 0.0 1016302
12:00−11sw512670 0.0 1013643
15:00−9ssw612680 0.0 1010842
18:00−11s411810 0.0 1006486
21:00−14sse415832 0.0 1003489